INTELSAT 902 (IS-902) (26900 NORAD) Tracking and Keplerian Element Data

This shows tracking and keplerian element data for the satellite.

Feedback or suggestion? Click here.




ElementValue
Catalog26900
NameINTELSAT 902 (IS-902)
Epoch Orbit8336
Epoch Day160.16855118
Epoch Year2024
RAAN80.7457
Inclination4.2393
Eccentricity0.0004718
Argument of Perigee20.8902
Mean Anonmoly166.0047
Mean Motion1.0027062
Decay Rate-2.86E-06
L11 26900U 01039A 24160.16855118 -.00000286 00000+0 00000+0 0 9993
L22 26900 4.2393 80.7457 0004718 20.8902 166.0047 1.00270620 83364



Live tracking and technical data element details for INTELSAT 902 (IS-902) (NORAD 26900). INTELSAT 902 (IS-902) can be tracked NOW for your location showing map with azimuth and elevation plus other details from your city location.







IsCatalogInMostPopularTable: catalog: 26900, numindb: 650
Update: records affected: 1



GetName: 26900 INTELSAT 902 (IS-902)

Hit Count: updated at: Sun, 23 Jun 2024 00:28:23 GMT